New Richmond, WI

3:53 AM CST on December 03, 2016 (GMT -0600)
New Richmond Municipal

Weather History for KRNH - August, 2013

Change the Weather History Date:

Friday, August 30, 2013

  Actual Average (KMSP) Record (KMSP)
Temperature  
Mean Temperature 74 °F 68 °F  
Max Temperature 83 °F 78 °F 96 °F (1941)
Min Temperature 66 °F 59 °F 45 °F (1935)
Degree Days  
Heating Degree Days 0 1  
Month to date heating degree days 9  
Since 1 June heating degree days 58  
Since 1 July heating degree days 14  
Cooling Degree Days 9 5  
Month to date cooling degree days 200  
Year to date cooling degree days 676  
Since 1 June cooling degree days 634  
Growing Degree Days 24 (Base 50)    
Moisture  
Dew Point 64 °F    
Average Humidity 71    
Maximum Humidity 99    
Minimum Humidity 45    
Precipitation  
Precipitation 0.02 in 0.12 in 7.28 in (1977)
Month to date precipitation 4.18  
Year to date precipitation 22.05  
Snow  
Snow 0.00 in 0.00 in 0.00 in ()
Month to date snowfall 0.0  
Since 1 June snowfall 0.0  
Since 1 July snowfall 0.0  
Snow Depth -    
Sea Level Pressure  
Sea Level Pressure 29.90 in    
Wind  
Wind Speed 8 mph (NE)    
Max Wind Speed 15 mph    
Max Gust Speed 22 mph    
Visibility 10 miles    
Events Rain    
T = Trace of Precipitation, MM = Missing Value Source: NWS Daily Summary

Daily Weather History Graph

Daily Weather History Graph

Search for Another Location

Airport or City:

Trip Planner

Search our weather history database for the weather conditions in past years. The results will help you decide how hot, cold, wet, or windy it might be!

Date:

Astronomy

Aug. 30, 2013 Rise Set
Actual Time 6:29 AM CDT 7:50 PM CDT
Civil Twilight 5:59 AM CDT 8:20 PM CDT
Nautical Twilight 5:22 AM CDT 8:57 PM CDT
Astronomical Twilight 4:43 AM CDT 9:36 PM CDT
Moon 1:00 AM CDT (8/30) 4:14 PM CDT (8/30)
Length of Visible Light 14h 21m
Length of Day
13h 20m
Waning Crescent, 29% of the Moon is Illuminated
Aug 30
Waning Crescent
Sep 5
New
Sep 12
First Quarter
Sep 19
Full
Sep 26
Last Quarter

Hourly Weather History & Observations

Time (CDT) Temp. Heat Index Dew Point Humidity Pressure Visibility Wind Dir Wind Speed Gust Speed Precip Events Conditions
12:15 AM 78.1 °F - 68.9 °F 73% 29.87 in 10.0 mi SSW 9.2 mph - N/A   Clear
12:35 AM 77.9 °F - 68.9 °F 74% 29.87 in 10.0 mi SSW 9.2 mph - N/A   Clear
12:55 AM 77.9 °F - 68.9 °F 74% 29.87 in 10.0 mi SSW 6.9 mph - N/A   Scattered Clouds
1:15 AM 77.9 °F - 68.7 °F 73% 29.87 in 10.0 mi NNE 15.0 mph 18.4 mph N/A   Mostly Cloudy
1:35 AM 79.7 °F - 68.0 °F 67% 29.87 in 10.0 mi Calm Calm - N/A   Overcast
1:55 AM 79.0 °F - 68.4 °F 70% 29.86 in 10.0 mi ESE 6.9 mph - N/A   Overcast
2:15 AM 78.8 °F - 68.0 °F 69% 29.86 in 10.0 mi SSE 6.9 mph - N/A   Overcast
2:35 AM 77.5 °F - 69.6 °F 76% 29.86 in 10.0 mi SSE 6.9 mph - 0.02 in Rain Light Rain
2:55 AM 76.1 °F - 70.9 °F 84% 29.84 in 10.0 mi SSE 4.6 mph - 0.02 in   Mostly Cloudy
3:15 AM 75.4 °F - 72.5 °F 91% 29.84 in 10.0 mi Calm Calm - N/A   Scattered Clouds
3:35 AM 75.2 °F - 72.0 °F 90% 29.84 in 10.0 mi South 3.5 mph - N/A   Scattered Clouds
3:55 AM 74.8 °F - 72.0 °F 91% 29.84 in 10.0 mi South 3.5 mph - N/A   Scattered Clouds
4:15 AM 74.5 °F - 72.0 °F 92% 29.84 in 10.0 mi SSW 4.6 mph - N/A   Scattered Clouds
4:35 AM 74.5 °F - 71.8 °F 91% 29.84 in 10.0 mi SSW 4.6 mph - N/A   Scattered Clouds
4:55 AM 73.9 °F - 71.6 °F 92% 29.84 in 10.0 mi Calm Calm - N/A   Scattered Clouds
5:15 AM 72.5 °F - 71.1 °F 95% 29.84 in 10.0 mi WSW 3.5 mph - N/A   Clear
5:35 AM 71.6 °F - 70.7 °F 97% 29.84 in 10.0 mi Calm Calm - N/A   Clear
5:55 AM 71.1 °F - 70.3 °F 98% 29.84 in 10.0 mi Calm Calm - N/A   Clear
6:15 AM 70.7 °F - 70.3 °F 99% 29.85 in 7.0 mi WNW 4.6 mph - N/A   Clear
6:35 AM 71.4 °F - 70.9 °F 98% 29.86 in 10.0 mi North 3.5 mph - N/A   Clear
6:55 AM 71.1 °F - 70.2 °F 97% 29.86 in 10.0 mi North 5.8 mph - N/A   Clear
7:15 AM 71.1 °F - 69.4 °F 95% 29.87 in 10.0 mi North 10.4 mph - N/A   Mostly Cloudy
7:35 AM 71.1 °F - 68.7 °F 92% 29.88 in 10.0 mi North 12.7 mph - N/A   Scattered Clouds
7:55 AM 70.2 °F - 67.8 °F 92% 29.89 in 10.0 mi North 15.0 mph 21.9 mph N/A   Mostly Cloudy
8:55 AM 69.8 °F - 66.2 °F 88% 29.91 in 10.0 mi NNE 10.4 mph 18.4 mph N/A   Overcast
9:15 AM 69.8 °F - 64.6 °F 83% 29.92 in 10.0 mi North 12.7 mph 18.4 mph N/A   Overcast
9:35 AM 70.7 °F - 64.0 °F 79% 29.92 in 10.0 mi NNE 12.7 mph 20.7 mph N/A   Overcast
9:55 AM 71.6 °F - 64.0 °F 77% 29.93 in 10.0 mi North 13.8 mph - N/A   Overcast
10:15 AM 71.2 °F - 63.9 °F 77% 29.94 in 10.0 mi North 8.1 mph 18.4 mph N/A   Overcast
10:35 AM 72.0 °F - 61.5 °F 70% 29.94 in 10.0 mi NNE 15.0 mph - N/A   Overcast
10:55 AM 72.9 °F - 61.9 °F 68% 29.94 in 10.0 mi North 11.5 mph - N/A   Overcast
11:15 AM 73.8 °F - 62.1 °F 67% 29.94 in 10.0 mi NNE 11.5 mph - N/A   Overcast
11:35 AM 73.6 °F - 62.1 °F 67% 29.94 in 10.0 mi NE 12.7 mph 16.1 mph N/A   Overcast
11:55 AM 74.5 °F - 61.9 °F 65% 29.95 in 10.0 mi NE 12.7 mph - N/A   Overcast
12:15 PM 76.3 °F - 62.6 °F 62% 29.94 in 10.0 mi NE 11.5 mph 17.3 mph N/A   Overcast
12:35 PM 76.5 °F - 62.2 °F 61% 29.94 in 10.0 mi NNE 8.1 mph 19.6 mph N/A   Overcast
12:55 PM 76.5 °F - 62.1 °F 61% 29.94 in 10.0 mi NE 12.7 mph 18.4 mph N/A   Overcast
1:15 PM 76.8 °F - 62.6 °F 61% 29.94 in 10.0 mi ENE 10.4 mph - N/A   Overcast
1:35 PM 78.1 °F - 62.6 °F 59% 29.94 in 10.0 mi NE 12.7 mph 18.4 mph N/A   Mostly Cloudy
1:55 PM 79.9 °F - 62.1 °F 54% 29.94 in 10.0 mi ENE 10.4 mph 17.3 mph N/A   Mostly Cloudy
2:15 PM 80.1 °F 81.2 °F 62.2 °F 54% 29.93 in 10.0 mi ENE 9.2 mph - N/A   Scattered Clouds
2:35 PM 81.0 °F 82.1 °F 62.4 °F 53% 29.93 in 10.0 mi North 9.2 mph - N/A   Mostly Cloudy
2:55 PM 81.1 °F 82.4 °F 63.0 °F 54% 29.93 in 10.0 mi NNE 8.1 mph - N/A   Scattered Clouds
3:15 PM 81.5 °F 82.5 °F 62.1 °F 52% 29.92 in 10.0 mi NE 10.4 mph - N/A   Scattered Clouds
3:35 PM 82.2 °F 83.0 °F 61.7 °F 50% 29.92 in 10.0 mi NE 10.4 mph - N/A   Scattered Clouds
3:55 PM 82.8 °F 83.1 °F 60.8 °F 47% 29.91 in 10.0 mi ENE 6.9 mph - N/A   Scattered Clouds
4:15 PM 82.4 °F 82.7 °F 60.3 °F 47% 29.91 in 10.0 mi NE 5.8 mph - N/A   Clear
4:35 PM 82.4 °F 82.7 °F 60.3 °F 47% 29.91 in 10.0 mi NE 10.4 mph - N/A   Clear
4:55 PM 82.6 °F 82.6 °F 59.5 °F 45% 29.90 in 10.0 mi ENE 4.6 mph - N/A   Clear
5:15 PM 82.6 °F 82.6 °F 59.0 °F 45% 29.90 in 10.0 mi NE 11.5 mph 17.3 mph N/A   Clear
5:35 PM 82.4 °F 82.7 °F 60.1 °F 47% 29.91 in 10.0 mi NNE 10.4 mph - N/A   Clear
5:55 PM 82.0 °F 82.1 °F 59.0 °F 45% 29.90 in 10.0 mi NNE 10.4 mph - N/A   Clear
6:15 PM 81.1 °F 81.6 °F 59.5 °F 48% 29.90 in 10.0 mi NE 8.1 mph - N/A   Clear
6:35 PM 80.6 °F 80.9 °F 58.3 °F 46% 29.90 in 10.0 mi NE 9.2 mph - N/A   Clear
6:55 PM 79.7 °F - 59.0 °F 49% 29.90 in 10.0 mi NE 9.2 mph - N/A   Clear
7:15 PM 78.3 °F - 59.7 °F 53% 29.90 in 10.0 mi NE 6.9 mph - N/A   Clear
7:35 PM 76.3 °F - 59.9 °F 57% 29.90 in 10.0 mi NNE 4.6 mph - N/A   Clear
7:55 PM 75.0 °F - 59.5 °F 58% 29.91 in 10.0 mi NE 5.8 mph - N/A   Clear
8:15 PM 72.5 °F - 60.3 °F 65% 29.91 in 10.0 mi NE 3.5 mph - N/A   Clear
8:35 PM 70.7 °F - 60.8 °F 71% 29.91 in 10.0 mi ENE 4.6 mph - N/A   Clear
8:55 PM 70.7 °F - 60.1 °F 69% 29.91 in 10.0 mi ENE 8.1 mph - N/A   Clear
9:15 PM 71.1 °F - 59.9 °F 68% 29.91 in 10.0 mi ENE 6.9 mph - N/A   Clear
9:35 PM 70.2 °F - 59.9 °F 70% 29.91 in 10.0 mi ENE 5.8 mph - N/A   Clear
9:55 PM 68.5 °F - 60.1 °F 74% 29.92 in 10.0 mi NE 5.8 mph - N/A   Clear
10:15 PM 68.0 °F - 60.3 °F 76% 29.91 in 10.0 mi East 5.8 mph - N/A   Clear
10:35 PM 68.2 °F - 60.6 °F 77% 29.91 in 10.0 mi East 5.8 mph - N/A   Clear
10:55 PM 67.5 °F - 60.8 °F 79% 29.91 in 10.0 mi ENE 5.8 mph - N/A   Clear
11:15 PM 66.7 °F - 61.0 °F 82% 29.91 in 10.0 mi East 6.9 mph - N/A   Clear
11:35 PM 66.6 °F - 61.2 °F 83% 29.92 in 10.0 mi ENE 6.9 mph - N/A   Clear
11:55 PM 66.2 °F - 61.5 °F 85% 29.91 in 10.0 mi East 6.9 mph - N/A   Clear